• Join FlightAware (Why Join?)
  • Login
  • US Flag 
04:56AM EST


 

Airport Tracker/Info


-or-


 

Live Flight TrackerFlight Track Log ✈ JBU1329 ✈ 12-May-2013 ✈ KBOS - KBWI

Flight Track Log - Related Links

Times and Time Zones

All times are in EDT time to prevent confusion due to time zone crossing. See the JBU1329 flight status page for this flight to view local times or setup timezone preferences in your user account.

Time Position Orientation Groundspeed Altitude Reporting Facility
EDT Latitude Longitude Course Direction KTS MPH feet Rate Location/Type
09:14AM 42.3500 -71.0167 258° West 186 214 600  Level KA90
09:16AM 42.0911 -71.6691 251° West  Level FlightAware Approximate
09:16AM 42.3228 -70.8647 104° East 240 276 5,400  Level Boston Center
09:17AM 42.0767 -71.7467 259° West  Level FlightAware Approximate
09:17AM 42.3233 -70.7608 90° East 253 291 8,200  Level Boston Center
09:18AM 42.0649 -71.8253 255° West  Level FlightAware Approximate
09:18AM 42.2561 -70.7233 158° South 211 243 10,700  Level Boston Center
09:19AM 42.0496 -71.9028 258° West  Level FlightAware Approximate
09:19AM 42.1861 -70.7758 209° Southwest 216 249 13,100  Level Boston Center
09:20AM 42.1669 -70.8911 257° West 216 249 15,700 2,160 Climbing Boston Center
09:21AM 42.1536 -71.0006 261° West 295 339 17,500 2,400 Climbing Boston Center
09:22AM 42.1428 -71.1436 264° West 340 391 20,600 2,220 Climbing Boston Center
09:23AM 42.1256 -71.2700 260° West 353 406 22,500 1,860 Climbing Boston Center
09:24AM 42.1083 -71.4242 261° West 353 406 24,800 1,860 Climbing Boston Center
09:25AM 42.0739 -71.5478 249° West 353 406 26,300 1,380 Climbing Boston Center
09:26AM 42.0308 -71.6492 240° Southwest 352 405 27,600 1,320 Climbing Boston Center
09:27AM 41.9858 -71.7697 243° Southwest 357 411 29,000 1,560 Climbing Boston Center
09:28AM 41.9406 -71.8875 243° Southwest 363 418 30,800 1,500 Climbing Boston Center
09:29AM 41.8972 -72.0050 244° Southwest 363 418 32,000 600 Climbing Boston Center
09:30AM 41.8519 -72.1225 243° Southwest 358 412 32,000  Level Boston Center
09:31AM 41.8064 -72.2425 243° Southwest 363 418 32,000  Level Boston Center
09:32AM 41.7606 -72.3622 243° Southwest 363 418 32,000  Level Boston Center
09:33AM 41.7147 -72.4819 243° Southwest 363 418 32,000  Level Boston Center
09:34AM 41.6647 -72.6097 242° Southwest 363 418 32,000  Level Boston Center
09:35AM 41.6186 -72.7261 242° Southwest 363 418 32,000  Level Boston Center
09:36AM 41.5722 -72.8481 243° Southwest 363 418 32,000  Level Boston Center
09:37AM 41.5322 -72.9503 242° Southwest 363 418 32,000  Level Boston Center
09:38AM 41.4858 -73.0692 243° Southwest 363 418 32,000  Level Boston Center
09:39AM 41.4497 -73.1628 243° Southwest 363 418 32,000  Level Boston Center
09:41AM 41.3486 -73.4161 242° Southwest 367 422 32,000  Level New York Center
09:42AM 41.3022 -73.5303 242° Southwest 362 417 32,000  Level New York Center
09:43AM 41.2475 -73.6411 237° Southwest 362 417 32,000  Level New York Center
09:44AM 41.1844 -73.7458 231° Southwest 362 417 32,000  Level New York Center
09:45AM 41.1256 -73.8478 233° Southwest 367 422 32,000  Level New York Center
09:46AM 41.0647 -73.9497 232° Southwest 360 414 32,000  Level New York Center
09:47AM 41.0056 -74.0514 232° Southwest 355 409 32,000 -180 Level New York Center
09:48AM 40.9467 -74.1528 232° Southwest 361 415 31,700 -840 Descending New York Center
09:49AM 40.8878 -74.2406 228° Southwest 361 415 30,300 -1,500 Descending New York Center
09:50AM 40.8267 -74.3361 230° Southwest 361 415 28,800 -1,260 Descending New York Center
09:51AM 40.7672 -74.4372 232° Southwest 361 415 27,900 -960 Descending New York Center
09:52AM 40.7078 -74.5381 232° Southwest 361 415 26,900 -1,020 Descending New York Center
09:53AM 40.6506 -74.6306 231° Southwest 355 409 25,900 -1,020 Descending New York Center
09:54AM 40.5953 -74.7286 233° Southwest 348 400 24,900 -1,020 Descending New York Center
09:55AM 40.5361 -74.8125 227° Southwest 335 386 23,900 -1,020 Descending New York Center
09:56AM 40.4750 -74.8961 226° Southwest 323 372 22,900 -1,020 Descending New York Center
09:57AM 40.4114 -74.9850 227° Southwest 323 372 21,900 -1,020 Descending New York Center
09:58AM 40.3497 -75.0711 227° Southwest 329 379 20,900 -1,020 Descending New York Center
09:59AM 40.2906 -75.1547 227° Southwest 329 379 19,900 -960 Descending New York Center
10:00AM 40.2222 -75.2508 227° Southwest 335 386 19,000 -480 Descending New York Center
10:01AM 40.1606 -75.3364 227° Southwest 331 381 19,000  Level New York Center
10:02AM 40.1056 -75.4117 226° Southwest 326 375 19,000  Level New York Center
10:03AM 40.0417 -75.5022 227° Southwest 326 375 19,000  Level New York Center
10:04AM 39.9864 -75.5744 225° Southwest 326 375 19,000  Level New York Center
10:05AM 39.9200 -75.6700 228° Southwest 326 375 19,000 -780 Level New York Center
10:06AM 39.8750 -75.7506 234° Southwest 326 375 17,500 -1,440 Descending New York Center
10:07AM 39.8228 -75.8525 236° Southwest 314 361 16,100 -1,380 Descending New York Center
10:09AM 39.7167 -76.0500 235° Southwest 283 326 13,000 -1,320 Descending Potomac TRACON
10:10AM 39.6833 -76.1333 243° Southwest 249 287 11,600 -1,200 Descending Potomac TRACON
10:11AM 39.6500 -76.2000 237° Southwest 251 289 10,600 -1,200 Descending Potomac TRACON
10:12AM 39.5833 -76.2500 210° Southwest 255 293 9,400 -1,320 Descending Potomac TRACON
10:13AM 39.5333 -76.3167 226° Southwest 256 295 8,200 -1,320 Descending Potomac TRACON
10:14AM 39.4833 -76.3667 218° Southwest 256 295 7,100 -1,200 Descending Potomac TRACON
10:15AM 39.4167 -76.4167 210° Southwest 254 292 5,800 -1,020 Descending Potomac TRACON
10:16AM 39.3500 -76.4500 201° Southwest 270 311 5,000 -480 Descending Potomac TRACON
10:17AM 39.2833 -76.4167 159° South 275 316 5,000  Level Potomac TRACON
10:18AM 39.2167 -76.3833 159° South 275 316 5,000 -480 Level Potomac TRACON
10:19AM 39.1333 -76.4000 189° South 260 299 4,100 -1,020 Descending Potomac TRACON
10:20AM 39.0833 -76.4333 207° Southwest 254 292 3,000 -720 Descending Potomac TRACON
10:21AM 39.0333 -76.4833 218° Southwest 254 292 2,800 -540 Descending Potomac TRACON
10:22AM 39.0167 -76.5500 252° West 254 292 2,000 -480 Descending Potomac TRACON
10:23AM 39.0667 -76.5833 333° Northwest 229 264 2,000 -360 Level Potomac TRACON
10:24AM 39.1167 -76.6167 333° Northwest 160 184 1,400 -660 Descending Potomac TRACON
10:25AM 39.1333 -76.6333 322° Northwest 129 148 800 -660 Descending Potomac TRACON